EHI
43 45 45 45 45 44 40 33 29 29 27 24 23 23 19 16 17 16 12 7 6 6 6 7 9 10 9 8 8 9 8 6 4 3 2 1 2 3 2 1 0 0 0
43 45 46 46 47 45 40 34 33 34 30 25 23 22 19 17 17 16 11 7 5 5 5 6 7 8 7 6 6 8 8 7 6 4 2 1 2 3 3 2 1 0 0
44 45 47 48 48 45 39 35 36 35 30 25 24 23 21 19 17 14 10 8 7 5 4 5 6 6 5 5 5 7 8 8 7 6 2 1 2 3 3 2 1 0 0
44 46 48 50 49 46 42 40 39 35 30 27 27 25 23 20 17 13 10 11 10 7 6 6 6 5 4 5 6 7 7 7 6 5 3 1 1 2 2 1 0 0 0
47 47 49 50 50 50 48 45 42 38 33 31 31 28 24 20 16 13 12 12 12 10 8 7 7 6 5 5 5 5 5 5 4 4 3 1 1 2 1 0 0 0 0
50 50 50 50 51 50 48 44 43 42 37 34 34 31 26 20 14 10 10 11 12 12 10 8 7 6 5 5 4 2 2 3 3 3 2 2 3 3 2 1 0 0 0
53 51 49 49 50 48 45 43 43 43 39 37 36 33 27 20 12 6 5 8 12 14 13 10 9 8 8 7 4 2 1 1 2 2 2 2 3 5 4 1 0 0 0
55 51 49 49 50 47 44 42 41 40 37 35 34 32 29 21 11 4 2 6 12 15 14 12 12 11 10 9 7 4 3 2 2 1 1 2 3 4 4 2 0 0 0
52 51 51 50 49 45 41 39 37 35 33 31 30 29 28 22 10 2 2 7 11 14 14 12 11 10 8 7 7 7 6 4 2 1 1 1 1 2 2 1 0 0 0
47 48 49 48 45 42 39 36 34 32 30 28 26 25 24 19 9 1 2 6 10 12 14 13 9 6 3 3 5 8 8 6 4 2 1 1 1 1 1 1 0 0 0
42 42 43 41 37 37 36 35 33 30 27 26 24 21 18 14 7 2 1 4 8 11 13 14 10 3 0 1 2 4 5 5 4 4 3 2 2 3 3 2 1 1 1
38 38 36 33 31 31 33 32 30 27 23 22 22 18 15 11 7 3 1 1 4 8 10 11 8 3 0 0 0 1 1 2 2 3 4 2 2 4 5 4 4 3 3
36 34 31 28 28 29 31 31 28 24 20 18 18 16 14 12 9 5 2 1 1 3 5 5 3 1 0 0 0 0 0 0 0 2 4 3 2 4 6 6 5 5 5
31 31 29 27 27 29 31 30 26 21 18 16 16 16 15 13 10 6 4 3 2 1 1 1 0 0 0 0 0 0 0 0 0 1 2 3 3 4 6 6 6 6 6
25 26 25 24 25 27 27 24 20 17 14 13 15 16 15 13 9 6 4 4 2 1 0 0 0 1 0 0 0 0 1 1 1 1 2 3 4 5 6 6 5 5 5
20 20 20 20 20 23 23 19 13 10 7 7 9 12 11 9 5 3 2 1 1 1 0 1 1 1 0 0 0 1 2 2 2 2 3 4 5 6 6 6 4 4 4
18 17 17 17 17 19 21 18 13 9 5 3 3 4 4 3 1 1 0 0 0 0 1 2 2 2 1 1 1 1 2 3 4 4 4 4 6 7 7 6 5 4 3
16 15 15 15 15 16 18 18 16 13 10 7 3 1 0 0 0 0 0 1 1 1 1 2 3 3 3 2 2 1 1 3 4 5 5 5 6 6 6 6 4 3 2
13 12 13 14 13 13 14 15 15 14 13 11 9 5 2 1 1 1 1 3 3 3 2 3 3 3 3 3 3 1 1 2 3 4 5 5 5 5 4 4 2 2 2
9 8 8 10 12 12 12 13 12 11 10 11 12 11 6 4 3 3 3 5 6 5 5 4 3 3 3 3 3 2 1 1 3 3 4 5 5 5 4 4 2 2 4
8 7 6 8 10 11 11 10 9 8 7 8 11 12 8 5 5 4 5 6 6 6 6 5 4 3 3 3 3 3 1 1 2 3 3 4 5 5 5 5 4 5 6
8 7 7 7 8 8 8 8 7 6 6 7 8 8 7 6 6 6 6 6 6 6 5 4 3 3 3 3 3 3 2 1 1 2 4 4 5 5 6 6 6 6 6
6 7 7 7 7 6 6 6 5 4 4 5 6 7 7 8 8 8 7 6 5 4 4 3 3 3 3 3 3 3 2 1 0 2 4 5 5 5 5 5 5 5 5
6 6 6 6 6 6 6 5 4 3 3 4 5 7 9 10 10 9 7 4 2 3 3 3 3 3 3 3 3 1 1 0 0 1 2 3 3 4 4 3 3 2 2
6 6 6 6 5 4 4 4 3 3 3 3 4 6 7 8 9 8 5 3 2 3 3 3 3 3 3 3 2 1 0 0 0 0 1 1 1 2 3 2 1 0 0
6 5 4 4 4 4 3 3 3 3 3 3 4 5 5 6 7 7 5 3 2 3 3 3 3 3 3 3 2 1 0 0 0 0 0 0 0 1 2 2 1 0 0
Wind_Speed
9 9 8 8 8 8 7 6 5 5 5 5 5 4 4 4 3 3 3 2 2 2 2 2 2 3 2 2 1 2 2 1 1 2 2 3 3 3 4 3 3 3 6
9 8 8 8 7 7 7 6 6 5 5 5 5 5 5 4 4 4 3 3 2 2 2 2 2 2 2 2 1 2 1 1 2 3 3 3 3 4 4 3 3 3 4
8 8 8 8 8 7 7 6 6 6 5 5 5 5 5 4 4 4 4 3 3 3 3 3 2 2 2 1 2 2 2 2 2 4 4 3 3 4 4 3 3 2 3
8 8 8 8 7 7 6 6 6 6 5 5 5 5 5 5 5 5 4 4 4 3 3 3 3 3 2 2 3 2 2 2 3 3 4 4 4 5 4 4 4 3 2
8 8 8 7 7 6 6 6 6 6 5 5 5 5 5 5 4 4 5 5 4 4 3 3 3 1 1 1 1 2 3 3 4 4 4 4 4 5 5 4 4 4 3
8 7 6 6 6 6 6 6 5 5 4 4 5 5 5 4 3 2 4 4 4 4 4 4 4 5 4 4 1 0 1 3 3 4 4 4 5 6 5 4 4 4 3
7 6 6 6 6 5 5 5 5 5 5 5 5 5 5 4 5 5 4 5 4 4 3 3 4 3 5 5 6 6 4 3 3 4 4 4 6 6 6 7 5 4 2
6 6 6 6 6 5 5 5 5 5 5 5 5 5 5 5 6 6 5 6 5 4 4 4 4 3 3 3 5 5 5 5 5 6 4 4 3 4 6 6 5 5 4
6 6 6 6 6 6 6 5 5 5 5 5 5 6 5 5 7 7 6 6 5 5 5 4 4 4 2 3 5 5 5 4 4 3 2 1 2 3 4 5 6 6 5
4 4 4 5 5 5 5 5 5 5 5 5 5 5 5 5 7 7 8 6 5 5 5 5 3 3 3 4 6 5 5 4 4 5 5 6 7 8 8 7 6 6 5
3 4 4 4 5 5 5 4 4 4 4 5 5 5 5 5 8 8 8 6 4 5 4 4 3 6 5 5 6 5 4 3 4 5 5 6 6 6 7 7 6 6 5
3 3 3 4 3 3 4 4 4 5 5 5 5 5 5 5 6 8 9 7 5 4 4 3 3 7 6 6 5 3 3 4 5 4 5 5 5 6 6 6 7 6 5
2 2 3 3 3 4 4 4 4 5 5 5 5 5 5 4 5 8 10 9 6 5 3 1 2 6 6 6 7 6 6 6 5 5 5 5 5 5 5 6 7 7 8
2 2 2 4 4 4 3 4 4 4 5 5 5 5 4 4 4 5 6 7 8 7 5 4 6 7 7 4 5 7 7 5 5 5 5 5 5 5 6 6 7 7 7
2 2 3 3 4 3 3 3 5 4 4 4 4 4 4 4 3 2 3 4 5 4 4 5 5 5 6 6 5 5 6 6 6 6 5 5 5 6 6 6 6 6 7
2 3 3 2 3 4 4 3 2 3 3 4 3 4 3 2 3 5 4 4 4 4 6 6 5 5 5 5 5 6 6 6 6 6 6 5 6 6 6 6 6 7 8
2 3 3 3 3 4 4 4 4 4 4 4 5 4 4 3 4 5 6 5 5 6 7 6 6 6 5 5 5 6 5 5 5 6 6 6 6 6 6 7 7 7 7
3 3 3 3 4 3 4 4 4 5 4 4 5 6 6 6 6 6 6 6 5 6 7 6 6 5 5 5 5 5 5 5 5 6 6 6 6 6 7 7 7 7 7
3 3 2 3 3 3 4 4 4 5 4 3 3 5 6 7 6 6 7 5 5 5 6 6 5 4 4 4 4 4 5 5 5 6 6 6 6 6 6 7 7 8 8
2 2 3 3 3 4 4 4 4 4 4 4 4 3 4 4 4 5 6 5 5 5 5 5 5 5 4 5 5 5 6 5 6 6 6 6 6 6 7 8 7 7 7
3 2 4 4 4 4 4 4 4 4 4 4 3 1 2 4 4 5 5 5 5 4 4 5 5 5 5 5 5 5 6 5 5 5 5 5 6 6 6 7 7 7 7
3 3 3 3 3 3 3 3 3 3 3 4 2 3 5 4 3 3 4 4 5 4 4 5 5 4 4 4 5 5 5 5 5 5 5 6 5 6 6 7 7 6 6
3 3 3 3 3 2 3 3 3 3 3 3 2 1 2 3 3 3 3 3 3 3 3 3 4 3 4 4 4 4 4 4 5 5 6 6 6 6 6 7 8 7 7
3 3 3 3 3 3 3 3 3 2 2 2 2 1 1 2 2 2 2 2 2 3 3 3 3 4 4 3 3 3 2 3 5 5 6 6 6 6 6 6 6 7 6
3 3 3 2 3 3 2 3 2 2 2 2 2 2 2 2 2 2 2 2 2 2 2 2 2 3 4 4 3 2 2 2 3 4 5 5 6 6 6 6 5 6 6
2 2 2 2 2 2 2 2 2 2 3 3 2 2 2 3 3 2 2 2 2 2 2 3 2 2 2 2 1 1 1 1 2 4 5 4 5 4 5 5 6 6 6
Wind_Direction
196 196 197 194 195 198 202 204 203 207 205 207 206 207 208 208 208 217 234 216 238 246 253 256 270 295 287 266 230 233 237 232 180 130 112 115 122 118 114 112 120 118 103
190 190 194 196 196 200 199 201 201 203 205 205 207 210 212 206 206 214 223 216 225 234 243 248 257 254 255 272 251 225 213 202 194 155 139 133 133 135 127 133 122 114 110
184 189 190 193 193 199 200 199 201 201 203 201 205 210 211 207 209 214 220 221 224 230 241 241 241 238 237 223 229 216 198 177 175 169 154 140 143 147 146 145 130 124 127
185 188 189 192 191 192 196 198 197 198 198 198 204 211 211 210 213 215 216 217 218 220 226 235 241 235 227 215 201 194 182 166 163 175 154 158 155 157 173 166 160 160 160
187 189 187 188 188 186 188 193 194 196 196 198 204 207 208 209 213 217 220 210 214 219 217 217 213 205 353 270 254 186 179 182 176 177 174 175 170 171 187 187 175 164 163
186 188 182 182 184 185 187 190 191 196 200 197 205 208 210 211 142 194 251 225 221 224 221 216 199 187 184 194 221 238 243 204 196 197 197 192 188 188 187 192 184 184 182
184 184 179 180 181 183 187 185 189 195 197 201 209 210 209 188 156 181 231 242 230 229 228 229 233 185 195 198 184 190 201 218 234 243 224 211 198 191 191 196 200 206 205
181 182 180 181 178 177 178 181 192 198 198 202 209 211 210 186 168 186 210 227 227 226 229 229 229 213 210 224 206 198 202 199 214 227 235 230 215 189 196 205 192 189 194
176 182 182 183 181 179 182 185 193 199 205 210 209 210 212 190 172 185 211 223 219 221 224 226 229 222 181 230 222 211 207 200 191 196 204 172 118 162 189 196 192 198 195
174 177 179 190 190 192 192 192 197 200 207 217 207 211 210 198 171 186 213 230 220 221 215 211 199 228 179 204 224 218 214 214 200 174 175 184 191 187 195 211 206 211 206
167 173 178 193 197 198 196 195 201 204 204 217 209 209 209 202 176 184 207 237 232 232 227 223 187 164 180 205 240 234 223 234 213 201 196 194 193 193 198 206 222 228 227
164 175 182 194 212 198 198 198 201 206 210 214 211 217 210 198 187 184 195 223 261 240 244 239 154 150 179 204 222 220 219 233 226 214 212 206 203 201 197 202 211 226 241
169 177 197 206 213 211 206 204 207 210 223 222 218 219 216 201 179 180 193 207 226 238 240 67 131 176 193 202 206 206 213 223 223 221 218 217 215 208 199 196 203 214 224
192 188 200 215 216 207 212 214 219 220 227 231 229 228 220 209 206 189 194 200 207 220 222 176 177 194 214 223 199 200 215 221 226 229 227 224 214 203 210 210 209 206 213
219 218 220 229 223 213 217 232 231 232 236 237 241 237 231 224 204 194 215 217 223 219 213 216 217 208 212 215 215 213 213 211 219 229 232 226 219 215 214 215 217 216 220
232 231 237 240 232 219 213 221 234 238 205 217 250 265 245 227 178 189 212 230 224 199 213 224 224 226 226 225 224 218 213 215 220 222 227 228 227 223 220 216 214 222 225
263 255 251 246 242 226 219 228 228 216 209 208 212 219 228 209 187 194 206 208 195 187 217 228 227 229 231 230 229 231 228 219 221 224 224 226 228 228 224 222 220 225 230
275 270 263 254 253 247 238 236 236 234 216 212 205 200 200 198 190 191 191 184 192 205 230 236 234 231 232 236 237 238 235 226 222 227 227 226 226 226 227 226 225 227 230
281 282 287 289 278 265 255 248 245 245 240 231 210 179 186 186 181 183 183 212 217 216 230 239 241 239 237 236 238 239 240 236 230 230 230 229 228 227 229 231 231 226 230
259 265 266 267 264 261 256 252 249 245 240 238 236 213 167 180 194 189 206 225 231 229 230 237 239 242 242 239 234 234 236 236 233 234 232 229 227 229 233 237 237 231 226
253 226 221 244 249 252 254 256 254 252 249 244 243 187 187 213 215 212 215 223 232 235 236 242 239 237 235 237 238 238 242 242 238 238 238 237 235 234 236 238 239 240 236
260 253 245 247 253 258 265 263 259 254 256 259 245 174 180 226 223 215 219 223 230 237 237 238 241 240 242 244 242 243 242 241 242 245 247 246 245 242 240 239 237 235 235
247 249 255 257 259 257 255 258 261 262 265 265 264 230 199 232 238 239 239 239 233 235 236 233 241 245 244 248 251 250 250 252 254 254 251 249 247 243 240 238 236 233 229
245 243 246 251 255 255 257 257 259 268 276 279 275 261 240 241 258 267 264 257 250 245 242 244 251 260 260 258 253 252 268 284 273 258 255 256 252 249 244 238 235 232 230
253 249 247 248 252 258 264 267 267 267 268 268 266 265 265 262 261 268 271 264 260 265 261 255 257 257 260 257 267 284 326 305 285 283 259 255 252 249 248 245 240 235 231
272 270 270 273 274 275 273 273 273 267 260 260 264 264 264 264 263 262 260 260 259 261 266 260 265 269 276 261 274 319 332 298 283 283 271 252 247 246 248 248 244 240 234